When you browse on this site, cookies collect data to enhance your experience and personalize the content and advertising you see.
Visit our Privacy Policy to learn more. By continuing to use the site, you agree to this use of cookies and data.
  • en Belgique
  • Liste des pays
  • À 7 jours
  • Température de l'eau
  • Carte météo
  • Widgets météo
  • user-avatar
    Se connecter

    Météo par heure à Brisbane

    Ce jour, 14 Décembre, Samedi

    Heure Température Précipitation Vent Pression Humidité
    00:00 +24°C° 0 mm 1 m/s 757 mmHg 86%
    01:00 +24°C° 0 mm 1 m/s 756 mmHg 87%
    02:00 +24°C° 0 mm 1 m/s 756 mmHg 87%
    03:00 +24°C° 0 mm 1 m/s 756 mmHg 87%
    04:00 +23°C° 0 mm 1 m/s 756 mmHg 87%
    05:00 +25°C° 0 mm 1 m/s 756 mmHg 81%
    06:00 +24°C° 0 mm 0 m/s 756 mmHg 76%
    07:00 +25°C° 0 mm 0 m/s 757 mmHg 70%
    08:00 +29°C° 0 mm 1 m/s 757 mmHg 64%
    09:00 +30°C° 0 mm 1 m/s 756 mmHg 57%
    10:00 +32°C° 0 mm 1 m/s 756 mmHg 54%
    11:00 +34°C° 0 mm 2 m/s 755 mmHg 50%
    12:00 +35°C° 0 mm 2 m/s 755 mmHg 45%
    13:00 +36°C° 0 mm 3 m/s 754 mmHg 41%
    14:00 +35°C° 0 mm 4 m/s 754 mmHg 47%
    15:00 +33°C° 0 mm 5 m/s 753 mmHg 53%
    16:00 +32°C° 0 mm 5 m/s 753 mmHg 55%
    17:00 +30°C° 0 mm 5 m/s 753 mmHg 62%
    18:00 +28°C° 0 mm 5 m/s 754 mmHg 69%
    19:00 +27°C° 0 mm 4 m/s 754 mmHg 75%
    20:00 +27°C° 0 mm 4 m/s 755 mmHg 78%
    21:00 +26°C° 0 mm 3 m/s 755 mmHg 82%
    22:00 +26°C° 0 mm 2 m/s 756 mmHg 85%
    23:00 +25°C° 0 mm 2 m/s 756 mmHg 85%

    Demain, 15 Décembre, Dimanche

    Heure Température Précipitation Vent Pression Humidité
    00:00 +25°C° 0 mm 2 m/s 755 mmHg 86%
    01:00 +25°C° 0 mm 2 m/s 755 mmHg 87%
    02:00 +24°C° 0 mm 2 m/s 755 mmHg 87%
    03:00 +24°C° 0 mm 2 m/s 755 mmHg 88%
    04:00 +24°C° 0 mm 2 m/s 755 mmHg 88%
    05:00 +25°C° 0 mm 2 m/s 756 mmHg 83%
    06:00 +26°C° 0 mm 2 m/s 756 mmHg 77%
    07:00 +28°C° 0 mm 2 m/s 756 mmHg 71%
    08:00 +30°C° 0 mm 2 m/s 756 mmHg 61%
    09:00 +33°C° 0 mm 1 m/s 756 mmHg 50%
    10:00 +36°C° 0 mm 1 m/s 756 mmHg 40%
    11:00 +37°C° 0 mm 2 m/s 755 mmHg 39%
    12:00 +37°C° 0 mm 3 m/s 754 mmHg 38%
    13:00 +37°C° 0 mm 4 m/s 754 mmHg 37%
    14:00 +36°C° 0 mm 5 m/s 753 mmHg 43%
    15:00 +35°C° 0 mm 5 m/s 753 mmHg 49%
    16:00 +33°C° 0 mm 6 m/s 753 mmHg 56%
    17:00 +32°C° 0 mm 6 m/s 753 mmHg 61%
    18:00 +29°C° 0 mm 5 m/s 753 mmHg 67%
    19:00 +28°C° 0 mm 5 m/s 754 mmHg 73%
    20:00 +27°C° 0 mm 4 m/s 755 mmHg 75%
    21:00 +27°C° 0 mm 4 m/s 755 mmHg 77%
    22:00 +27°C° 0 mm 3 m/s 756 mmHg 80%
    23:00 +26°C° 0 mm 3 m/s 755 mmHg 80%

    Après-demain, 16 Décembre, Lundi

    Heure Température Précipitation Vent Pression Humidité
    00:00 +26°C° 0 mm 3 m/s 755 mmHg 81%
    01:00 +25°C° 0 mm 2 m/s 754 mmHg 82%
    02:00 +25°C° 0 mm 2 m/s 754 mmHg 83%
    03:00 +25°C° 0 mm 2 m/s 754 mmHg 84%
    04:00 +24°C° 0 mm 2 m/s 754 mmHg 85%
    05:00 +26°C° 0 mm 2 m/s 755 mmHg 79%
    06:00 +27°C° 0 mm 2 m/s 755 mmHg 73%
    07:00 +28°C° 0 mm 2 m/s 755 mmHg 67%
    08:00 +31°C° 0 mm 2 m/s 755 mmHg 52%
    09:00 +36°C° 0 mm 2 m/s 755 mmHg 38%
    10:00 +39°C° 0 mm 2 m/s 755 mmHg 24%
    11:00 +41°C° 0 mm 2 m/s 754 mmHg 21%
    12:00 +42°C° 0 mm 2 m/s 753 mmHg 17%
    13:00 +45°C° 0 mm 2 m/s 753 mmHg 14%
    14:00 +43°C° 0 mm 3 m/s 753 mmHg 19%
    15:00 +41°C° 0 mm 4 m/s 752 mmHg 25%
    16:00 +39°C° 0 mm 5 m/s 752 mmHg 30%
    17:00 +35°C° 0 mm 6 m/s 753 mmHg 36%
    18:00 +32°C° 0 mm 6 m/s 755 mmHg 43%
    19:00 +28°C° 0 mm 7 m/s 756 mmHg 49%
    20:00 +27°C° 0 mm 6 m/s 757 mmHg 54%
    21:00 +26°C° 0 mm 5 m/s 758 mmHg 59%
    22:00 +25°C° 0 mm 5 m/s 759 mmHg 64%
    23:00 +25°C° 0 mm 5 m/s 759 mmHg 66%

    17 Décembre, Mardi

    Heure Température Précipitation Vent Pression Humidité
    00:00 +23°C° 0 mm 5 m/s 759 mmHg 68%
    01:00 +23°C° 0 mm 5 m/s 759 mmHg 71%
    02:00 +22°C° 0 mm 4 m/s 759 mmHg 71%
    03:00 +22°C° 0 mm 4 m/s 759 mmHg 72%
    04:00 +22°C° 0 mm 4 m/s 759 mmHg 73%
    05:00 +23°C° 0 mm 4 m/s 759 mmHg 69%
    06:00 +23°C° 0 mm 4 m/s 760 mmHg 65%
    07:00 +25°C° 0 mm 5 m/s 760 mmHg 61%
    08:00 +27°C° 0 mm 5 m/s 760 mmHg 55%
    09:00 +28°C° 0 mm 5 m/s 761 mmHg 50%
    10:00 +29°C° 0 mm 5 m/s 761 mmHg 44%
    11:00 +30°C° 0 mm 6 m/s 760 mmHg 43%
    12:00 +30°C° 0 mm 6 m/s 760 mmHg 42%
    13:00 +32°C° 0 mm 7 m/s 760 mmHg 42%
    14:00 +30°C° 0 mm 7 m/s 760 mmHg 43%
    15:00 +29°C° 0 mm 7 m/s 759 mmHg 45%
    16:00 +28°C° 0 mm 7 m/s 759 mmHg 47%
    17:00 +27°C° 0 mm 6 m/s 760 mmHg 53%
    18:00 +24°C° 0 mm 6 m/s 761 mmHg 58%
    19:00 +23°C° 0 mm 5 m/s 761 mmHg 63%
    20:00 +22°C° 0 mm 5 m/s 762 mmHg 66%
    21:00 +22°C° 0 mm 4 m/s 762 mmHg 68%
    22:00 +21°C° 0 mm 4 m/s 763 mmHg 71%
    23:00 +21°C° 0 mm 4 m/s 762 mmHg 72%

    18 Décembre, Mercredi

    Heure Température Précipitation Vent Pression Humidité
    00:00 +21°C° 0 mm 3 m/s 762 mmHg 73%
    01:00 +20°C° 0 mm 3 m/s 762 mmHg 74%
    02:00 +20°C° 0 mm 3 m/s 762 mmHg 75%
    03:00 +19°C° 0 mm 3 m/s 761 mmHg 75%
    04:00 +19°C° 0 mm 3 m/s 761 mmHg 75%
    05:00 +20°C° 0 mm 3 m/s 762 mmHg 70%
    06:00 +22°C° 0 mm 3 m/s 762 mmHg 64%
    07:00 +23°C° 0 mm 4 m/s 762 mmHg 58%
    08:00 +25°C° 0 mm 4 m/s 763 mmHg 53%
    09:00 +27°C° 0 mm 4 m/s 763 mmHg 49%
    10:00 +28°C° 0 mm 4 m/s 763 mmHg 44%
    11:00 +29°C° 0 mm 5 m/s 762 mmHg 42%
    12:00 +29°C° 0 mm 5 m/s 762 mmHg 39%
    13:00 +30°C° 0 mm 5 m/s 761 mmHg 37%
    14:00 +29°C° 0 mm 5 m/s 761 mmHg 39%
    15:00 +29°C° 0 mm 5 m/s 761 mmHg 40%
    16:00 +28°C° 0 mm 5 m/s 761 mmHg 41%
    17:00 +27°C° 0 mm 4 m/s 761 mmHg 48%
    18:00 +25°C° 0 mm 3 m/s 761 mmHg 54%
    19:00 +22°C° 0 mm 3 m/s 762 mmHg 61%
    20:00 +23°C° 0 mm 2 m/s 762 mmHg 64%
    21:00 +21°C° 0 mm 2 m/s 762 mmHg 67%
    22:00 +21°C° 0 mm 2 m/s 763 mmHg 69%
    23:00 +20°C° 0 mm 2 m/s 762 mmHg 71%

    19 Décembre, Jeudi

    Heure Température Précipitation Vent Pression Humidité
    00:00 +21°C° 0 mm 1 m/s 762 mmHg 73%
    01:00 +21°C° 0 mm 1 m/s 761 mmHg 75%
    02:00 +20°C° 0 mm 1 m/s 761 mmHg 77%
    03:00 +20°C° 0 mm 1 m/s 761 mmHg 78%
    04:00 +19°C° 0 mm 1 m/s 761 mmHg 80%
    05:00 +21°C° 0 mm 1 m/s 761 mmHg 73%
    06:00 +23°C° 0 mm 1 m/s 761 mmHg 66%
    07:00 +22°C° 0 mm 0 m/s 761 mmHg 59%
    08:00 +27°C° 0 mm 1 m/s 761 mmHg 51%
    09:00 +29°C° 0 mm 1 m/s 761 mmHg 43%
    10:00 +31°C° 0 mm 2 m/s 761 mmHg 35%
    11:00 +32°C° 0 mm 2 m/s 760 mmHg 34%
    12:00 +34°C° 0 mm 3 m/s 760 mmHg 33%
    13:00 +34°C° 0 mm 4 m/s 759 mmHg 32%
    14:00 +33°C° 0 mm 4 m/s 759 mmHg 35%
    15:00 +32°C° 0 mm 4 m/s 758 mmHg 38%
    16:00 +32°C° 0 mm 4 m/s 758 mmHg 41%
    17:00 +29°C° 0 mm 4 m/s 758 mmHg 48%
    18:00 +27°C° 0 mm 4 m/s 759 mmHg 55%
    19:00 +25°C° 0 mm 4 m/s 759 mmHg 63%
    20:00 +24°C° 0 mm 3 m/s 759 mmHg 66%
    21:00 +22°C° 0 mm 3 m/s 760 mmHg 70%
    22:00 +21°C° 0 mm 3 m/s 760 mmHg 74%
    23:00 +21°C° 0 mm 2 m/s 760 mmHg 74%
    Voir plus